User: anonymous
Location: Unspecified
(0.0000°N, 0.0000°E)
Time: 09:22:30
(UTC+00:00)
Language:

USA 200 - Orbit

View from above orbital plane
View from above orbital plane
View from above satellite
View from above satellite

Ground track
Ground track

The orbit data is extracted from the following two-line orbital elements,

1 32706U 08010A   14081.96050631 -.00000404  00000-0  00000-0 0    03
2 32706  63.1263 136.6010 6853756 267.9334  18.9577  2.00609121    00
Epoch (UTC): 22 March 2014 23:03:07
Eccentricity: 0.6853756
inclination: 63.1263°
perigee height: 1977 km
apogee height: 38379 km
right ascension of ascending node: 136.6010°
argument of perigee: 267.9334°
revolutions per day: 2.00609121
mean anomaly at epoch: 18.9577°
orbit number at epoch: 0

The dashed part of the orbit path shows where the satellite is in the earth's shadow,  

DLR